Tracking 32941 objects as of 15-Jan-2026
HD Live streaming from Space Station
objects crossing your sky now

STARLINK-4252

Track STARLINK-4252 now!
10-day predictions
STARLINK-4252 is classified as:


NORAD ID: 53057
Int'l Code: 2022-077Q
Perigee: 555.6 km
Apogee: 557.7 km
Inclination: 97.6 °
Period: 95.6 minutes
Semi major axis: 6927 km
RCS: Unknown
Launch date: July 11, 2022
Source: United States (US)
Launch site: AIR FORCE WESTERN TEST RANGE (AFWTR)
Your satellite tracking list
Your tracking list is empty




NASA's NSSDC Master Catalog

Two Line Element Set (TLE):
1 53057U 22077Q   26015.37957509 -.00001390  00000-0 -92153-4 0  9996
2 53057  97.6019 198.7506 0001489  56.2753 303.8615 15.05640901192964
Source of the keplerian elements: AFSPC